SCP
0 0 0 0 0 -0 -0 -0 -0 -0 -0 -0 -0 -0 -0 -0 -0 -0 -0 -0 -0 -0 -0 -0 -0 -0 0
0 0 0 0 0 0 -0 -0 -0 -0 -0 -0 -0 -0 -0 -0 -0 -0 -0 -0 -0 -0 -0 -0 -0 0 0
0 0 0 0 0 0 -0 -0 0 0 0 0 0 0 -0 -0 -0 -0 -0 -0 -0 0 -0 0 0 0 0
0 0 0 0 0 0 0 0 0 0 0 0 0 0 0 0 0 0 0 0 0 0 0 0 0 0 0
0 0 0 0 0 0 0 0 0 0 0 0 0 0 0 0 0 0 0 0 0 0 0 0 0 0 0
0 0 0 0 0 0 0 0 0 0 0 0 0 0 0 0 0 0 0 0 0 0 0 0 0 0 0
0 0 0 0 0 -0 0 0 0 0 0 0 0 0 0 0 0 0 0 0 0 0 0 0 0 0 0
0 0 0 0 0 0 0 -0 0 0 0 0 0 0 0 0 0 0 0 0 0 0 0 0 0 0 0
0 0 0 0 0 0 0 0 0 0 0 0 0 0 0 0 0 0 0 0 0 0 0 0 0 0 0
0 0 0 0 0 0 0 0 0 0 0 0 0 0 0 0 0 0 0 0 0 0 0 0 0 0 0
0 0 0 0 0 0 0 0 0 0 0 0 0 0 0 0 0 0 0 0 0 0 0 0 0 0 0
0 0 0 0 0 0 0 0 0 0 0 0 0 0 0 0 0 0 0 0 0 0 0 0 0 0 0
0 0 0 0 0 0 0 0 0 0 0 0 0 0 0 0 0 0 0 0 0 0 0 0 0 0 0
0 0 0 0 0 0 0 0 0 0 0 0 0 0 0 0 0 0 0 0 0 0 0 0 0 0 0
0 0 0 0 0 0 0 0 0 0 0 0 0 0 0 0 0 0 0 0 0 0 0 0 0 0 0
0 0 0 0 0 0 0 0 0 0 0 0 0 0 0 0 0 0 0 0 0 0 0 0 0 0 0
Wind_Speed_500mb
22 24 26 28 29 24 23 30 22 28 26 24 26 26 24 24 23 22 20 19 17 17 17 17 19 21 20
26 23 25 28 27 23 22 27 25 27 26 23 24 25 24 23 22 20 18 15 11 12 12 12 13 14 16
24 25 24 29 30 27 22 22 24 26 25 24 23 23 22 21 19 17 15 13 8 5 8 9 11 12 14
25 25 25 28 27 26 24 24 25 24 23 23 23 23 21 19 18 15 11 9 7 3 2 5 7 11 13
27 28 27 27 25 26 25 25 25 24 23 22 20 20 18 16 15 13 9 8 7 5 3 3 6 11 12
28 28 28 29 27 27 26 24 22 23 24 22 20 20 19 17 14 11 10 9 9 8 7 5 7 10 12
35 33 31 31 29 26 25 25 25 24 23 22 21 20 18 16 15 14 13 12 10 11 10 9 10 12 13
39 39 34 32 30 29 28 28 27 26 25 22 21 20 20 17 16 16 15 14 13 15 14 12 12 15 16
39 40 40 37 35 30 28 29 28 27 24 23 22 22 18 17 18 19 18 17 17 17 17 11 13 17 20
44 41 42 41 40 35 34 33 31 30 27 28 27 24 22 22 21 21 21 21 22 21 20 17 17 21 23
48 45 43 43 43 39 40 39 35 34 33 32 30 26 27 26 25 25 26 25 24 23 21 21 24 23 25
51 50 50 50 49 48 47 46 43 42 41 39 35 32 33 32 32 31 31 30 27 25 26 27 28 30 30
64 61 62 64 60 56 54 51 50 49 47 45 43 40 40 40 36 34 34 37 35 34 32 31 34 37 36
74 69 70 67 65 59 56 56 56 55 53 53 50 48 47 46 43 41 40 42 42 43 41 35 34 35 38
76 74 76 71 71 69 69 65 63 60 59 58 56 53 52 53 51 47 44 43 47 49 50 47 20 33 39
76 80 85 85 81 75 74 71 68 64 63 62 61 60 57 59 59 55 52 49 46 52 54 58 62 59 42
Wind_Direction_500mb
170 166 167 168 170 171 152 163 148 134 132 131 125 123 124 121 122 123 119 108 104 95 88 81 71 64 57
170 169 167 174 177 172 159 153 155 145 137 134 132 132 132 135 136 131 124 119 112 100 93 79 68 58 49
182 179 180 173 168 169 167 145 152 152 147 143 141 143 146 146 143 140 137 136 142 117 95 74 55 38 34
187 185 179 174 166 165 167 159 155 154 155 155 158 157 159 160 156 153 154 149 171 181 94 62 38 25 18
194 188 188 179 176 172 171 170 165 167 170 169 168 167 174 174 174 175 181 182 192 221 247 339 359 5 3
207 203 194 190 188 182 176 178 174 179 182 180 178 183 187 187 194 202 202 203 209 233 264 292 325 340 342
209 209 205 201 200 193 185 184 184 189 188 191 193 196 202 208 215 220 220 217 217 235 258 286 307 320 329
210 213 210 211 206 204 200 195 197 200 199 200 204 206 214 220 224 230 228 225 225 232 254 277 300 321 321
213 214 214 215 213 210 209 209 206 209 209 212 219 222 226 233 233 233 232 233 234 236 255 272 300 303 312
219 218 218 217 219 218 216 218 216 217 217 219 224 230 234 239 241 243 242 240 235 234 253 271 282 299 312
220 225 226 223 226 225 225 225 224 226 228 231 233 233 241 246 251 254 253 248 239 245 250 267 269 282 288
226 227 230 229 228 227 228 229 228 230 233 236 239 238 242 247 252 254 255 248 244 243 246 256 262 271 278
227 227 230 232 229 227 230 232 234 236 236 240 242 242 245 249 253 257 257 250 242 239 241 240 250 267 271
231 232 235 239 238 237 235 236 236 238 241 243 246 248 249 253 253 253 255 255 246 240 240 241 247 254 247
232 233 237 242 243 241 239 238 238 240 242 246 250 252 254 255 257 257 256 258 253 243 243 241 247 253 259
232 234 238 241 242 244 245 246 245 245 248 249 251 253 254 257 256 256 255 257 254 248 247 248 251 260 267
Wind_Speed_850mb
22 24 26 28 29 24 23 30 22 28 26 24 26 26 24 24 23 22 20 19 17 17 17 17 19 21 20
26 23 25 28 27 23 22 27 25 27 26 23 24 25 24 23 22 20 18 15 11 12 12 12 13 14 16
24 25 24 29 30 27 22 22 24 26 25 24 23 23 22 21 19 17 15 13 8 5 8 9 11 12 14
25 25 25 28 27 26 24 24 25 24 23 23 23 23 21 19 18 15 11 9 7 3 2 5 7 11 13
27 28 27 27 25 26 25 25 25 24 23 22 20 20 18 16 15 13 9 8 7 5 3 3 6 11 12
28 28 28 29 27 27 26 24 22 23 24 22 20 20 19 17 14 11 10 9 9 8 7 5 7 10 12
35 33 31 31 29 26 25 25 25 24 23 22 21 20 18 16 15 14 13 12 10 11 10 9 10 12 13
39 39 34 32 30 29 28 28 27 26 25 22 21 20 20 17 16 16 15 14 13 15 14 12 12 15 16
39 40 40 37 35 30 28 29 28 27 24 23 22 22 18 17 18 19 18 17 17 17 17 11 13 17 20
44 41 42 41 40 35 34 33 31 30 27 28 27 24 22 22 21 21 21 21 22 21 20 17 17 21 23
48 45 43 43 43 39 40 39 35 34 33 32 30 26 27 26 25 25 26 25 24 23 21 21 24 23 25
51 50 50 50 49 48 47 46 43 42 41 39 35 32 33 32 32 31 31 30 27 25 26 27 28 30 30
64 61 62 64 60 56 54 51 50 49 47 45 43 40 40 40 36 34 34 37 35 34 32 31 34 37 36
74 69 70 67 65 59 56 56 56 55 53 53 50 48 47 46 43 41 40 42 42 43 41 35 34 35 38
76 74 76 71 71 69 69 65 63 60 59 58 56 53 52 53 51 47 44 43 47 49 50 47 20 33 39
76 80 85 85 81 75 74 71 68 64 63 62 61 60 57 59 59 55 52 49 46 52 54 58 62 59 42
Wind_Direction_850mb
170 166 167 168 170 171 152 163 148 134 132 131 125 123 124 121 122 123 119 108 104 95 88 81 71 64 57
170 169 167 174 177 172 159 153 155 145 137 134 132 132 132 135 136 131 124 119 112 100 93 79 68 58 49
182 179 180 173 168 169 167 145 152 152 147 143 141 143 146 146 143 140 137 136 142 117 95 74 55 38 34
187 185 179 174 166 165 167 159 155 154 155 155 158 157 159 160 156 153 154 149 171 181 94 62 38 25 18
194 188 188 179 176 172 171 170 165 167 170 169 168 167 174 174 174 175 181 182 192 221 247 339 359 5 3
207 203 194 190 188 182 176 178 174 179 182 180 178 183 187 187 194 202 202 203 209 233 264 292 325 340 342
209 209 205 201 200 193 185 184 184 189 188 191 193 196 202 208 215 220 220 217 217 235 258 286 307 320 329
210 213 210 211 206 204 200 195 197 200 199 200 204 206 214 220 224 230 228 225 225 232 254 277 300 321 321
213 214 214 215 213 210 209 209 206 209 209 212 219 222 226 233 233 233 232 233 234 236 255 272 300 303 312
219 218 218 217 219 218 216 218 216 217 217 219 224 230 234 239 241 243 242 240 235 234 253 271 282 299 312
220 225 226 223 226 225 225 225 224 226 228 231 233 233 241 246 251 254 253 248 239 245 250 267 269 282 288
226 227 230 229 228 227 228 229 228 230 233 236 239 238 242 247 252 254 255 248 244 243 246 256 262 271 278
227 227 230 232 229 227 230 232 234 236 236 240 242 242 245 249 253 257 257 250 242 239 241 240 250 267 271
231 232 235 239 238 237 235 236 236 238 241 243 246 248 249 253 253 253 255 255 246 240 240 241 247 254 247
232 233 237 242 243 241 239 238 238 240 242 246 250 252 254 255 257 257 256 258 253 243 243 241 247 253 259
232 234 238 241 242 244 245 246 245 245 248 249 251 253 254 257 256 256 255 257 254 248 247 248 251 260 267